Location: Castillon
(43.0896°N, 0.2156°E)
Time: 13:55:01
(UTC+00:00)

Cosmos 1891 Rocket - Pass Details

Date: 16 June 2021
Orbit: 935 x 1017 km, 82.9° (Epoch: 31 July)

Event Time Altitude Azimuth Distance (km) Brightness Sun altitude
Rises 23:30:10 0° 350° (N) 3,630 9.0 -23.2°
Reaches altitude 10° 23:32:39 10° 348° (NNW) 2,690 7.9 -23.2°
Maximum altitude 23:38:46 73° 266° (W) 1,013 4.5 -23.4°
Enters shadow 23:40:36 47° 196° (SSW) 1,262 4.6 -23.4°
